Charlottesville, VA

6:23 AM EST on November 22, 2019 (GMT -0500)
Charlottesville-Albemarle

Weather History for KCHO - September, 2019

Change the Weather History Date:

Thursday, September 19, 2019

  Actual Average Record
Temperature  
Mean Temperature 64 °F 66 °F  
Max Temperature 75 °F 77 °F 94 °F (1954)
Min Temperature 54 °F 54 °F 43 °F (1929)
Degree Days  
Heating Degree Days 0 2  
Month to date heating degree days 0 15  
Since 1 July heating degree days 0 18  
Cooling Degree Days 0 3  
Month to date cooling degree days 212 90  
Year to date cooling degree days 1669 1000  
Growing Degree Days 14 (Base 50)    
Moisture  
Dew Point 51 °F    
Average Humidity 66    
Maximum Humidity 83    
Minimum Humidity 38    
Precipitation  
Precipitation 0.00 in 0.19 in 0.57 in (2016)
Month to date precipitation 0.21 2.50  
Year to date precipitation 28.16 30.64  
Sea Level Pressure  
Sea Level Pressure 30.29 in    
Wind  
Wind Speed 2 mph ()    
Max Wind Speed 10 mph    
Max Gust Speed 14 mph    
Visibility 10.0 miles    
Events      
T = Trace of Precipitation, MM = Missing Value Source: Averaged Metar Reports

Daily Weather History Graph

Daily Weather History Graph

Search for Another Location

Airport or City:

Astronomy

Sep. 19, 2019 Rise Set
Actual Time 6:58 AM EDT 7:15 PM EDT
Civil Twilight 6:32 AM EDT 7:42 PM EDT
Nautical Twilight 6:01 AM EDT 8:13 PM EDT
Astronomical Twilight 5:29 AM EDT 8:44 PM EDT
Moon 10:28 PM EDT (9/19) 11:56 AM EDT (9/19)
Length of Visible Light 13h 09m
Length of Day
12h 17m
Waning Gibbous, 74% of the Moon is Illuminated
Sep 19
Waning Gibbous
Sep 21
Last Quarter
Sep 28
New
Oct 5
First Quarter
Oct 13
Full

Hourly Weather History & Observations

Time (EDT) Temp. Dew Point Humidity Pressure Visibility Wind Dir Wind Speed Gust Speed Precip Events Conditions
12:53 AM 59.0 °F 52.0 °F 78% 30.25 in 10.0 mi Calm Calm - N/A   Clear
1:53 AM 57.0 °F 52.0 °F 83% 30.26 in 10.0 mi Calm Calm - N/A   Scattered Clouds
2:33 AM 57.0 °F 52.0 °F 83% 30.28 in 10.0 mi North 3.5 mph - N/A   Mostly Cloudy
3:53 AM 60.1 °F 54.0 °F 80% 30.27 in 10.0 mi Calm Calm - N/A   Overcast
4:32 AM 59.0 °F 54.0 °F 83% 30.29 in 10.0 mi Calm Calm - N/A   Overcast
4:53 AM 61.0 °F 53.1 °F 75% 30.27 in 10.0 mi East 4.6 mph - N/A   Overcast
5:25 AM 59.0 °F 54.0 °F 83% 30.29 in 10.0 mi Calm Calm - N/A   Mostly Cloudy
5:53 AM 60.1 °F 54.0 °F 80% 30.28 in 10.0 mi Calm Calm - N/A   Overcast
6:53 AM 60.1 °F 54.0 °F 80% 30.30 in 10.0 mi ENE 5.8 mph - 0.00 in   Overcast
7:02 AM 60.1 °F 54.0 °F 80% 30.31 in 10.0 mi ENE 4.6 mph - N/A   Overcast
7:53 AM 60.1 °F 54.0 °F 80% 30.31 in 10.0 mi East 3.5 mph - N/A   Overcast
8:24 AM 63.0 °F 53.1 °F 70% 30.33 in 10.0 mi NE 3.5 mph - N/A   Overcast
8:46 AM 64.0 °F 52.0 °F 65% 30.33 in 10.0 mi Calm Calm - N/A   Scattered Clouds
8:53 AM 64.0 °F 51.1 °F 63% 30.32 in 10.0 mi ESE 4.6 mph - N/A   Mostly Cloudy
9:03 AM 64.0 °F 51.1 °F 63% 30.33 in 10.0 mi Variable 3.5 mph - N/A   Scattered Clouds
9:53 AM 64.9 °F 50.0 °F 58% 30.33 in 10.0 mi Calm Calm - N/A   Overcast
11:53 AM 66.0 °F 50.0 °F 56% 30.34 in 10.0 mi Calm Calm - N/A   Mostly Cloudy
12:53 PM 72.0 °F 51.1 °F 48% 30.32 in 10.0 mi NE 6.9 mph - N/A   Scattered Clouds
1:53 PM 72.0 °F 48.9 °F 44% 30.31 in 10.0 mi Variable 5.8 mph - N/A   Partly Cloudy
2:53 PM 73.0 °F 48.0 °F 41% 30.29 in 10.0 mi ENE 4.6 mph - N/A   Partly Cloudy
3:53 PM 73.9 °F 46.9 °F 38% 30.27 in 10.0 mi Calm Calm - N/A   Clear
4:53 PM 73.9 °F 48.0 °F 40% 30.26 in 10.0 mi Variable 4.6 mph - N/A   Clear
5:53 PM 73.0 °F 46.9 °F 39% 30.26 in 10.0 mi Variable 4.6 mph - N/A   Clear
6:53 PM 70.0 °F 46.9 °F 44% 30.27 in 10.0 mi East 4.6 mph - N/A   Clear
7:53 PM 64.0 °F 48.9 °F 58% 30.28 in 10.0 mi East 3.5 mph - N/A   Clear
8:53 PM 63.0 °F 48.0 °F 58% 30.29 in 10.0 mi South 3.5 mph - N/A   Clear
9:53 PM 57.0 °F 48.9 °F 74% 30.28 in 10.0 mi Calm Calm - N/A   Clear
10:53 PM 55.9 °F 50.0 °F 80% 30.30 in 10.0 mi NNW 3.5 mph - N/A   Clear
11:53 PM 55.0 °F 50.0 °F 83% 30.30 in 10.0 mi Calm Calm - N/A   Clear